This is the latest recevied weather packets stored in our database for station/object 9W2NNS-12. If no packets are shown the sender has not sent any weather packets the latest 10 day(s).
| Time | Temp. | Humidity | Pressure | Rain* | Wind** | Luminosity | Snow |
|---|---|---|---|---|---|---|---|
| 1788519479 | 36.11° C | 39% | 1012 hPa | - | - | - | - |
| 1788518875 | 36.11° C | 39% | 1013.1 hPa | - | - | - | - |
| 1788518271 | 36.67° C | 38% | 1012.7 hPa | - | - | - | - |
| 1788517678 | 36.67° C | 39% | 1013.6 hPa | - | - | - | - |
| 1788517068 | 37.22° C | 38% | 1012.6 hPa | - | - | - | - |
| 1788515853 | 36.67° C | 38% | 1012.3 hPa | - | - | - | - |
| 1788515249 | 36.67° C | 38% | 1011.2 hPa | - | - | - | - |
| 1788514646 | 36.67° C | 38% | 1010.8 hPa | - | - | - | - |
| 1788514042 | 36.67° C | 38% | 1008.2 hPa | - | - | - | - |
| 1788513438 | 36.67° C | 38% | 1011.6 hPa | - | - | - | - |
| 1788512834 | 36.11° C | 38% | 1014.7 hPa | - | - | - | - |
| 1788512230 | 36.67° C | 37% | 1010.9 hPa | - | - | - | - |
| 1788511627 | 37.78° C | 37% | 1011.7 hPa | - | - | - | - |
| 1788511024 | 37.78° C | 36% | 1009.6 hPa | - | - | - | - |
| 1788510419 | 37.78° C | 36% | 1010.1 hPa | - | - | - | - |
| 1788509815 | 37.22° C | 37% | 1009.1 hPa | - | - | - | - |
| 1788509211 | 36.67° C | 37% | 1008.9 hPa | - | - | - | - |
| 1788508608 | 36.67° C | 38% | 1010.2 hPa | - | - | - | - |
| 1788508004 | 36.67° C | 38% | 1010.1 hPa | - | - | - | - |
| 1788506193 | 36.11° C | 40% | 1009.1 hPa | - | - | - | - |
| 1788504987 | 35.56° C | 40% | 1009.2 hPa | - | - | - | - |
| 1788504381 | 35.56° C | 40% | 1010.7 hPa | - | - | - | - |
| 1788503778 | 36.11° C | 40% | 1010.7 hPa | - | - | - | - |
| 1788502570 | 35.56° C | 41% | 1011.7 hPa | - | - | - | - |
| 1788501967 | 35.56° C | 41% | 1013.8 hPa | - | - | - | - |
* Rain since midnight (hover to see other rain measurements)
** Current wind speed in m/s (hover to see current wind gust speed)